This demonstration page uses our WeatherBlox Daily Observations layout. Learn more.

Left ArrowRight Arrow

47.50024, -111.30081

Hourly Observations for May 5, 2015

Temp ( °F °C ) Dew Point ( °F °C ) Humidity (%) Winds ( mph kmh ) Pressure ( in mb ) Visibility ( mi km ) Precip ( " mm )
12:14 am 00:14 Mostly Clear 55 13 23 -5 28 28 S 9 15 29.71 1006 10 16 0.00 0.00
12:53 am 00:53 Mostly Clear 50 10 27 -2.8 41 41 SW 12 19 29.75 1008 10 16 0.00 0.00
1:53 am 01:53 Clear 46 7.8 31 -0.6 56 56 SW 6 9 29.75 1007 10 16 0.00 0.00
2:53 am 02:53 Clear 49 9.4 32 0 52 52 S 8 13 29.72 1006 10 16 0.00 0.00
3:53 am 03:53 Mostly Clear 55 12.8 35 1.7 47 47 S 9 15 29.70 1006 10 16 0.00 0.00
4:53 am 04:53 Mostly Clear 50 10 34 1.1 54 54 S 6 9 29.70 1006 10 16 0.00 0.00
5:53 am 05:53 Clear 44 6.7 33 0.6 65 65 S 12 19 29.72 1006 10 16 0.00 0.00
6:53 am 06:53 Sunny 49 9.4 34 1.1 56 56 W 14 22 29.71 1006 10 16 0.00 0.00
7:53 am 07:53 Sunny 50 10 34 1.1 54 54 NNW 3 6 29.74 1007 10 16 0.00 0.00
8:53 am 08:53 Sunny 58 14.4 32 0 38 38 VRB 3 6 29.75 1007 10 16 0.00 0.00
9:53 am 09:53 Sunny 62 16.7 36 2.2 38 38 NE 3 6 29.74 1007 10 16 0.00 0.00
10:53 am 10:53 Sunny 65 18.3 35 1.7 33 33 VRB 3 6 29.75 1007 10 16 0.00 0.00
11:53 am 11:53 Sunny 67 19.4 33 0.6 28 28 VRB 3 6 29.71 1006 10 16 0.00 0.00
12:53 pm 12:53 Sunny 69 20.6 33 0.6 26 26 W 3 6 29.70 1006 10 16 0.00 0.00
1:53 pm 13:53 Sunny 70 21.1 33 0.6 26 26 Calm 29.70 1006 10 16 0.00 0.00
2:53 pm 14:53 Sunny 71 21.7 33 0.6 25 25 VRB 5 7 29.66 1004 10 16 0.00 0.00
3:53 pm 15:53 Sunny 73 22.8 34 1.1 24 24 VRB 6 9 29.62 1003 10 16 0.00 0.00
4:53 pm 16:53 Sunny 70 21.1 34 1.1 27 27 SW 3 6 29.64 1004 10 16 0.00 0.00
5:37 pm 17:37 Cloudy 60 15.6 41 5 50 50 WSW 20 31 29.59 1002 10 16 0.00 0.00
5:53 pm 17:53 Cloudy with Light Rain 56 13.3 45 7.2 67 67 WSW 17 28 29.72 1007 7 11 0.00 0.03
6:26 pm 18:26 Cloudy 57 14 45 7 63 63 NW 14 22 29.65 1004 10 16 0.00 0.00
6:53 pm 18:53 Cloudy with Light Rain 56 13.3 47 8.3 72 72 N 7 11 29.74 1007 8 13 0.00 0.03
7:53 pm 19:53 Mostly Cloudy 56 13.3 46 7.8 70 70 E 10 17 29.75 1007 10 16 0.00 0.03
8:53 pm 20:53 Cloudy 56 13.3 45 7.2 67 67 SE 6 9 29.74 1007 10 16 0.00 0.00
9:53 pm 21:53 Mostly Clear 54 12.2 44 6.7 69 69 Calm 29.75 1007 10 16 0.00 0.00
10:53 pm 22:53 Partly Cloudy 51 10.6 47 8.3 86 86 NNE 7 11 29.75 1008 10 16 0.00 0.00
11:53 pm 23:53 Cloudy 52 11.1 46 7.8 80 80 Calm 29.75 1008 10 16 0.00 0.00

Powered by AerisWeather